Total_Precipitation_Accumulation
0.93 0.81 0.73 0.72 0.74 0.71 0.65 0.58 0.54 0.52 0.49 0.49 0.45 0.37 0.36 0.38 0.33 0.29 0.28 0.28 0.31 0.45 0.60 0.71 0.77 0.77 0.78 0.78 0.75 0.74 0.69 0.66 0.63 0.64 0.62 0.58 0.55 0.54 0.54 0.55 0.56 0.56 0.58
1.26 1.12 1.02 0.93 0.88 0.85 0.81 0.76 0.70 0.69 0.65 0.59 0.55 0.48 0.41 0.42 0.44 0.42 0.39 0.36 0.33 0.36 0.52 0.69 0.83 0.91 0.92 0.91 0.88 0.81 0.74 0.66 0.63 0.67 0.66 0.63 0.60 0.60 0.60 0.55 0.54 0.56 0.59
1.40 1.34 1.28 1.25 1.19 1.12 1.03 0.98 0.94 0.91 0.83 0.71 0.64 0.60 0.55 0.52 0.51 0.54 0.53 0.48 0.43 0.39 0.48 0.66 0.81 0.94 0.97 0.98 1.01 0.97 0.89 0.77 0.70 0.67 0.67 0.64 0.59 0.60 0.63 0.62 0.59 0.56 0.56
1.53 1.44 1.35 1.26 1.27 1.36 1.36 1.25 1.14 1.06 0.94 0.82 0.72 0.65 0.58 0.57 0.54 0.56 0.60 0.61 0.57 0.48 0.44 0.54 0.66 0.81 0.91 1.02 1.12 1.21 1.22 1.05 0.90 0.81 0.74 0.68 0.61 0.57 0.55 0.56 0.58 0.56 0.54
1.73 1.65 1.50 1.40 1.40 1.32 1.33 1.35 1.27 1.14 1.05 0.99 0.91 0.80 0.68 0.60 0.57 0.56 0.55 0.57 0.60 0.55 0.49 0.51 0.57 0.64 0.76 0.94 1.11 1.31 1.42 1.30 1.11 0.97 0.86 0.78 0.74 0.67 0.60 0.58 0.57 0.56 0.57
1.88 1.81 1.65 1.59 1.64 1.54 1.39 1.27 1.27 1.22 1.11 1.10 1.08 1.00 0.90 0.80 0.74 0.65 0.60 0.57 0.56 0.54 0.52 0.49 0.49 0.53 0.62 0.77 1.01 1.21 1.31 1.38 1.34 1.20 1.05 0.94 0.87 0.83 0.79 0.77 0.72 0.69 0.66
2.01 1.98 1.82 1.70 1.70 1.62 1.49 1.41 1.34 1.33 1.29 1.25 1.31 1.24 1.11 1.01 0.95 0.86 0.76 0.69 0.66 0.64 0.60 0.56 0.53 0.51 0.52 0.61 0.77 0.96 1.07 1.18 1.28 1.29 1.26 1.20 1.11 1.03 0.98 0.96 0.94 0.89 0.86
2.02 2.01 1.98 1.89 1.79 1.74 1.69 1.65 1.61 1.53 1.48 1.48 1.52 1.56 1.43 1.27 1.04 0.91 0.88 0.81 0.74 0.72 0.67 0.61 0.55 0.52 0.52 0.54 0.63 0.74 0.85 0.99 1.14 1.25 1.28 1.28 1.27 1.26 1.26 1.25 1.22 1.16 1.08
2.06 1.99 1.99 2.03 1.97 1.86 1.74 1.69 1.66 1.63 1.58 1.56 1.57 1.69 1.54 1.27 1.02 0.90 0.82 0.78 0.76 0.75 0.72 0.71 0.69 0.64 0.60 0.59 0.60 0.66 0.72 0.79 0.96 1.16 1.31 1.37 1.37 1.40 1.46 1.54 1.58 1.54 1.41
2.08 2.05 2.01 2.03 2.02 1.95 1.79 1.74 1.68 1.62 1.62 1.59 1.57 1.49 1.39 1.18 1.10 1.01 0.87 0.79 0.77 0.77 0.78 0.78 0.78 0.79 0.77 0.74 0.73 0.75 0.74 0.75 0.91 1.12 1.35 1.55 1.65 1.68 1.69 1.73 1.77 1.77 1.70
2.08 2.03 2.00 2.00 1.92 1.87 1.84 1.87 1.81 1.76 1.69 1.60 1.53 1.48 1.48 1.30 1.12 1.10 0.99 0.86 0.84 0.82 0.85 0.89 0.87 0.87 0.86 0.82 0.76 0.78 0.84 0.87 1.04 1.24 1.47 1.66 1.81 1.94 2.02 2.03 2.03 2.02 1.98
2.11 2.03 1.94 1.91 1.87 1.85 1.85 1.88 1.92 1.88 1.84 1.77 1.65 1.53 1.53 1.50 1.33 1.25 1.19 1.01 0.94 0.88 0.84 0.87 0.89 0.89 0.87 0.83 0.82 0.89 0.82 0.84 0.94 1.10 1.39 1.65 1.78 1.89 2.04 2.16 2.20 2.15 2.11
1.87 1.85 1.88 1.83 1.77 1.72 1.75 1.80 1.88 1.87 1.84 1.82 1.75 1.65 1.58 1.51 1.40 1.39 1.37 1.22 1.10 0.97 0.91 0.89 0.87 0.86 0.86 0.84 0.85 0.96 0.88 0.89 0.93 1.03 1.25 1.48 1.57 1.62 1.74 1.95 2.18 2.29 2.36
1.80 1.78 1.77 1.79 1.79 1.75 1.72 1.75 1.79 1.81 1.79 1.74 1.64 1.58 1.53 1.45 1.44 1.46 1.44 1.47 1.45 1.23 1.04 0.91 0.84 0.85 0.88 0.90 1.00 1.12 1.00 1.12 1.12 1.17 1.29 1.42 1.43 1.40 1.45 1.55 1.76 1.96 2.09
1.66 1.67 1.66 1.66 1.69 1.71 1.69 1.71 1.75 1.73 1.72 1.69 1.63 1.54 1.44 1.32 1.30 1.32 1.34 1.43 1.59 1.53 1.25 0.96 0.89 0.93 1.00 1.05 1.17 1.12 1.06 1.27 1.30 1.29 1.33 1.37 1.37 1.30 1.29 1.36 1.41 1.48 1.55
1.49 1.50 1.49 1.48 1.50 1.52 1.54 1.59 1.60 1.57 1.57 1.54 1.53 1.53 1.47 1.35 1.30 1.32 1.37 1.42 1.51 1.59 1.44 1.06 0.92 0.94 1.07 1.16 1.33 1.22 1.13 1.34 1.32 1.29 1.30 1.27 1.22 1.17 1.14 1.16 1.24 1.32 1.33
1.31 1.30 1.29 1.30 1.30 1.32 1.36 1.41 1.40 1.41 1.46 1.46 1.45 1.47 1.47 1.43 1.42 1.40 1.44 1.49 1.56 1.64 1.62 1.29 1.08 1.04 1.11 1.14 1.17 1.13 1.10 1.12 1.12 1.26 1.19 1.12 1.08 1.04 1.02 0.99 1.02 1.10 1.18
1.19 1.21 1.21 1.19 1.16 1.14 1.18 1.21 1.23 1.24 1.28 1.32 1.37 1.42 1.45 1.45 1.49 1.50 1.53 1.54 1.55 1.54 1.55 1.44 1.19 1.06 1.03 1.02 1.02 1.02 0.99 0.96 0.93 1.09 1.09 1.03 0.98 0.98 0.98 0.94 0.92 0.93 1.01
1.08 1.11 1.13 1.10 1.10 1.08 1.10 1.11 1.09 1.11 1.13 1.16 1.20 1.26 1.28 1.34 1.40 1.42 1.47 1.50 1.47 1.44 1.43 1.35 1.15 0.97 0.92 0.92 0.99 0.99 0.95 0.89 0.82 0.90 0.95 0.94 0.90 0.90 0.93 0.90 0.88 0.86 0.83
0.90 0.96 1.03 1.02 1.00 1.02 1.06 1.09 1.11 1.10 1.08 1.07 1.07 1.13 1.17 1.21 1.25 1.30 1.38 1.41 1.40 1.39 1.39 1.37 1.26 1.07 0.93 0.86 0.90 0.93 0.92 0.86 0.80 0.75 0.87 0.89 0.89 0.87 0.85 0.78 0.72 0.71 0.70
0.70 0.73 0.81 0.88 0.93 0.94 0.99 1.01 1.03 1.06 1.06 1.06 1.07 1.12 1.19 1.33 1.35 1.29 1.27 1.25 1.25 1.31 1.34 1.33 1.23 1.08 0.94 0.86 0.85 0.79 0.81 0.84 0.85 0.79 0.80 0.81 0.80 0.79 0.80 0.81 0.78 0.72 0.71
0.60 0.64 0.68 0.71 0.78 0.86 1.08 1.07 0.96 0.94 1.02 1.07 1.10 1.09 1.12 1.25 1.24 1.23 1.20 1.16 1.17 1.24 1.28 1.23 1.10 0.95 0.78 0.68 0.69 0.76 0.82 0.92 0.95 0.77 0.77 0.82 0.78 0.82 0.79 0.77 0.82 0.78 0.75
0.61 0.64 0.67 0.70 0.74 0.87 1.08 1.08 1.10 0.98 0.99 1.04 1.06 1.05 1.00 0.96 1.01 0.90 0.97 1.05 1.06 1.06 1.03 0.98 0.96 0.82 0.71 0.65 0.74 0.88 0.89 0.88 0.79 0.65 0.74 0.90 0.86 0.83 0.75 0.77 0.85 0.79 0.78
0.76 0.80 0.84 0.87 0.89 0.99 1.08 1.02 1.02 0.92 0.94 0.94 0.91 0.88 0.84 0.79 0.78 0.80 0.82 0.88 0.80 0.75 0.75 0.71 0.70 0.67 0.67 0.70 0.80 0.92 0.97 1.02 0.91 0.82 0.82 0.93 0.83 0.78 0.71 0.71 0.80 0.76 0.76
1.07 1.04 0.99 0.94 0.89 0.90 0.94 0.90 0.86 0.80 0.82 0.80 0.75 0.72 0.72 0.68 0.78 0.87 0.81 0.76 0.70 0.67 0.71 0.74 0.77 0.78 0.85 0.91 0.94 1.02 1.11 1.22 1.12 0.86 0.74 0.75 0.70 0.67 0.66 0.68 0.72 0.78 0.76
1.05 1.03 1.00 0.93 0.85 0.77 0.75 0.71 0.70 0.64 0.64 0.62 0.59 0.57 0.64 0.65 0.77 0.85 0.77 0.74 0.70 0.59 0.58 0.63 0.66 0.67 0.67 0.73 0.87 0.86 0.94 1.21 1.12 0.87 0.57 0.61 0.66 0.74 0.93 0.70 0.62 0.66 0.72